Regional Weather Roundup
Issued by NWS Lake Charles, LA

Home | Current Version | Previous Version | Text Only | Print | Product List | Glossary On
Versions: 1 2 3 4 5 6 7 8 9 10 11 12 13 14 15 16 17 18 19 20 21 22 23 24 25 26 27 28 29 30 31 32 33 34 35 36 37 38 39 40 41 42 43 44 45 46 47
000
ASUS44 KLCH 311710
RWRLCH
RWRLCH
REGIONAL WEATHER ROUNDUP
NATIONAL WEATHER SERVICE LAKE CHARLES LA
1200 PM CDT FRI JUL 31 2015

Note: "fair" indicates few or no clouds below 12,000 feet with no
significant weather and/or obstructions to visibility.


ACROSS SOUTHEAST TEXAS

CITY           SKY/WX    TMP DP  RH WIND       PRES   REMARKS
BEAUMONT       MOSUNNY   93  75  55 N8        29.99F HX 104
BEAUMONT CITY    N/A     91  74  57 N8        30.01F
ORANGE         SUNNY     90  68  47 N7        30.01F
JASPER         SUNNY     90  69  49 N9        30.06S
$$

ACROSS CENTRAL LOUISIANA

CITY           SKY/WX    TMP DP  RH WIND       PRES   REMARKS
LEESVILLE      SUNNY     87  68  53 N8        30.02F
FULLERTON        N/A     89  67  47 VRB5      30.01F
ALEXANDRIA INT SUNNY     87  68  52 N9        30.02S
ESLER FIELD    SUNNY     89  67  47 NE8       30.03F
DERIDDER         N/A     87  70  57 N6        30.05S
OAKDALE        SUNNY     89  71  54 NE10      30.01F
OPELOUSAS        N/A     86  73  64 N8        30.00S
$$

ACROSS SOUTHWEST AND SOUTH CENTRAL LOUISIANA

CITY           SKY/WX    TMP DP  RH WIND       PRES   REMARKS
SULPHUR        MOSUNNY   91  74  56 N8        30.01S HX 100
LAKE CHARLES   MOSUNNY   91  72  53 N8        29.99F
CHENNAULT INT  SUNNY     90  73  58 NE7       30.00S
CAMERON PHI    SUNNY     88  75  66 NE8       30.03S
DEQUINCY         N/A     87  72  61 NE7       30.01F
JENNINGS         N/A     88  73  61 N12       29.99F
LAFAYETTE      SUNNY     90  73  57 NE9       29.99S
NEW IBERIA     SUNNY     91  74  57 N9        29.98F HX 100
ABBEVILLE        N/A     89  74  60 N8        29.98F
PATTERSON      SUNNY     88  73  62 NE3       29.98S
SALT POINT       N/A     89  75  63 MISG      29.95S
$$

SELECTED SITES ACROSS THE REGION

CITY           SKY/WX    TMP DP  RH WIND       PRES   REMARKS
HOUSTON BUSH   MOSUNNY   92  76  59 E7        30.02S HX 104
HOUSTON HOBBY  MOSUNNY   93  75  55 NE9       30.00S HX 104
GALVESTON      SUNNY     92  76  59 N10       30.02S HX 104
COLLEGE STAT   MOSUNNY   93  73  52 MISG      30.04S HX 102
CONROE         MOSUNNY   91  73  55 VRB5      30.04S
HUNTSVILLE     MOSUNNY   91  73  55 E6        30.05S
LUFKIN         MOSUNNY   88  69  53 NE6       30.06S
SHREVEPORT     MOSUNNY   90  62  39 E12       30.08F
MONROE         SUNNY     88  61  40 E15G21    30.08S
NATCHEZ MS     MOSUNNY   84  66  54 NE9       30.03F
BATON ROUGE    SUNNY     89  70  53 VRB6      29.98F
N.O. INTL ARPT MOSUNNY   88  72  58 N7        29.96S
SLIDELL        SUNNY     90  77  65 VRB7      29.95S HX 103
$$

MARINE REPORTS

STATION/POSITION TIME  TEMP    WIND        PRES    VSBY  WAVE
                       AIR SEA DIR/SP/G                  HT/PER
                 (UTC) (F)     (DEG/KT/KT) (MB)    (MI)  (FT/S)
BUOY 30 S HIGH I 1650   85 86   40/  8/ 10 1015.6F         2/ 3
SEA RIM ST PARK  1700   89      40/  6/  7 1016.3F
PORT ARTHUR      1600      88   30/  1/  6 1016.1S
SABINE PASS N    1600   85 88   10/  7/  9 1016.1F
TEXAS POINT      NOT AVBL
CALCASIEU PASS   1600   84 88   40/  8/ 13 1015.0R
LK CHARLES BEACH 1600   85 88                N/A
MARSH ISLAND     1600   84      50/  7/  9   N/A           0
FRESH WATER LOCK 1600   81 88   50/  4/  8 1015.1S
AMERADA PASS     NOT AVBL
$$


USA.gov is the U.S. government's official web portal to all federal, state and local government web resources and services.